WC1Z Weather Reports


Display with metric or nautical units.
time (UTC)temp
F
wind
direction
speed
MPH
gust
MPH
rain 1hr
in
rain 24hr
in
rain mn
in
humidity
%
barometer
mb
20260906182701 89 167 6.0 8.0 0.00 0.00 0.00 66 1013.3
20260906182200 89 172 4.0 6.0 0.00 0.00 0.00 68 1013.3
20260906181700 88 172 6.0 8.0 0.00 0.00 0.00 69 1013.3
20260906181201 88 140 3.0 7.0 0.00 0.00 0.00 68 1013.3
20260906180700 88 183 5.0 8.0 0.00 0.00 0.00 69 1013.4
20260906180201 87 72 2.0 3.0 0.00 0.00 0.00 69 1013.5
20260906175700 88 10 2.0 3.0 0.00 0.00 0.00 69 1013.7
20260906175200 87 174 5.0 7.0 0.00 0.00 0.00 69 1013.7
20260906174700 87 100 2.0 4.0 0.00 0.00 0.00 69 1013.9
20260906174201 87 93 1.0 3.0 0.00 0.00 0.00 69 1014.1
20260906173700 87 117 3.0 4.0 0.00 0.00 0.00 70 1014.2
20260906173200 87 57 1.0 2.0 0.00 0.00 0.00 71 1014.3
20260906172701 87 140 0.0 2.0 0.00 0.00 0.00 72 1014.4
20260906172200 87 131 0.0 1.0 0.00 0.00 0.00 72 1014.5
20260906171700 87 5 2.0 4.0 0.00 0.00 0.00 70 1014.6
20260906171201 86 185 1.0 3.0 0.00 0.00 0.00 72 1014.7
20260906170700 86 200 3.0 4.0 0.00 0.00 0.00 72 1014.6
20260906170201 86 265 3.0 4.0 0.00 0.00 0.00 70 1014.7
20260906165700 86 360 0.0 0.0 0.00 0.00 0.00 70 1014.7
20260906165200 85 228 2.0 3.0 0.00 0.00 0.00 72 1014.7
20260906164700 85 12 2.0 4.0 0.00 0.00 0.00 72 1014.7
20260906164201 85 165 3.0 5.0 0.00 0.00 0.00 73 1014.8
20260906163700 85 10 2.0 4.0 0.00 0.00 0.00 74 1014.9
20260906163200 84 355 2.0 4.0 0.00 0.00 0.00 76 1014.9
20260906162700 84 237 1.0 2.0 0.00 0.00 0.00 77 1014.9
20260906162200 84 289 0.0 2.0 0.00 0.00 0.00 77 1014.9
20260906161700 83 131 2.0 3.0 0.00 0.00 0.00 78 1014.9
20260906161200 83 114 2.0 4.0 0.00 0.00 0.00 79 1014.9
20260906160700 83 177 0.0 2.0 0.00 0.00 0.00 79 1015.0
20260906160200 82 140 1.0 3.0 0.00 0.00 0.00 81 1014.9
20260906155700 82 3 1.0 2.0 0.00 0.00 0.00 81 1014.9
20260906155200 82 64 3.0 6.0 0.00 0.00 0.00 81 1015.0
20260906154700 82 37 3.0 4.0 0.00 0.00 0.00 83 1014.9
20260906154200 81 60 3.0 5.0 0.00 0.00 0.00 82 1014.9
20260906153701 81 19 1.0 4.0 0.00 0.00 0.00 83 1015.0
20260906153201 81 112 2.0 3.0 0.00 0.00 0.00 83 1015.0
20260906152700 80 29 2.0 4.0 0.00 0.00 0.00 84 1015.0
20260906152200 80 299 1.0 2.0 0.00 0.00 0.00 86 1015.0
20260906151700 80 258 1.0 3.0 0.00 0.00 0.00 86 1015.0
20260906151200 80 134 2.0 3.0 0.00 0.00 0.00 85 1015.0
20260906150703 79 350 2.0 3.0 0.00 0.00 0.00 87 1015.0
20260906150200 79 324 2.0 2.0 0.00 0.00 0.00 87 1015.0
20260906145701 78 324 2.0 2.0 0.00 0.00 0.00 87 1015.0
20260906145200 78 316 2.0 2.0 0.00 0.00 0.00 89 1015.0
20260906144701 78 318 2.0 3.0 0.00 0.00 0.00 91 1014.9
20260906144200 78 316 2.0 3.0 0.00 0.00 0.00 94 1014.9
20260906143704 77 134 3.0 4.0 0.00 0.00 0.00 95 1014.8
20260906143200 77 134 3.0 4.0 0.00 0.00 0.00 95 1014.7
20260906142702 76 133 2.0 4.0 0.00 0.00 0.00 96 1014.7
20260906142200 76 134 2.0 2.0 0.00 0.00 0.00 96 1014.8
20260906141700 75 110 2.0 2.0 0.00 0.00 0.00 97 1014.8
20260906141200 75 111 3.0 4.0 0.00 0.00 0.00 97 1014.7
20260906140700 75 11 3.0 4.0 0.00 0.00 0.00 97 1014.7
20260906140202 75 124 2.0 4.0 0.00 0.00 0.00 97 1014.7
20260906135700 74 127 3.0 3.0 0.00 0.00 0.00 97 1014.7
20260906135200 74 111 3.0 5.0 0.00 0.00 0.00 97 1014.6
20260906134702 74 346 2.0 3.0 0.00 0.00 0.00 97 1014.6
20260906134200 74 119 2.0 2.0 0.00 0.00 0.00 97 1014.6
20260906133700 74 319 1.0 2.0 0.00 0.00 0.00 97 1014.6
20260906133200 74 316 2.0 2.0 0.00 0.00 0.00 97 1014.6
20260906132700 74 330 1.0 2.0 0.00 0.00 0.00 97 1014.5
20260906132200 74 320 1.0 2.0 0.00 0.00 0.00 97 1014.4
20260906131700 74 327 1.0 1.0 0.00 0.00 0.00 97 1014.4
20260906131203 74 305 1.0 2.0 0.00 0.00 0.00 97 1014.3
20260906130700 74 137 2.0 3.0 0.00 0.00 0.00 96 1014.2
20260906130200 74 324 2.0 3.0 0.00 0.00 0.00 96 1014.2
20260906125701 74 290 1.0 1.0 0.00 0.00 0.00 96 1014.2
20260906125200 74 347 2.0 3.0 0.00 0.00 0.00 96 1014.2
20260906124702 74 358 2.0 2.0 0.00 0.00 0.00 96 1014.2
20260906124200 74 321 1.0 2.0 0.00 0.00 0.00 96 1014.1
20260906123701 74 344 1.0 2.0 0.00 0.00 0.00 96 1014.1
20260906123202 74 321 2.0 2.0 0.00 0.00 0.00 96 1014.0
20260906122700 74 323 2.0 2.0 0.00 0.00 0.00 96 1014.0
20260906122201 74 318 2.0 2.0 0.00 0.00 0.00 96 1013.9
20260906121700 74 312 2.0 2.0 0.00 0.00 0.00 96 1014.0
20260906121200 74 317 1.0 2.0 0.00 0.00 0.00 96 1014.0
20260906120700 74 222 2.0 2.0 0.00 0.00 0.00 96 1013.9
20260906120201 74 307 1.0 2.0 0.00 0.00 0.00 96 1013.8
20260906115700 74 314 1.0 2.0 0.00 0.00 0.00 96 1013.7
20260906115200 74 321 1.0 1.0 0.00 0.00 0.00 96 1013.7
20260906114700 74 292 1.0 2.0 0.00 0.00 0.00 96 1013.6
20260906114200 74 314 1.0 2.0 0.00 0.00 0.00 96 1013.5
20260906113701 74 310 2.0 2.0 0.00 0.00 0.00 96 1013.5
20260906113200 74 314 1.0 1.0 0.00 0.00 0.00 96 1013.5
20260906112700 74 324 1.0 2.0 0.00 0.00 0.00 96 1013.5
20260906112200 74 346 2.0 2.0 0.00 0.00 0.00 96 1013.5
20260906111702 74 317 1.0 2.0 0.00 0.00 0.00 96 1013.4
20260906111200 74 309 2.0 2.0 0.00 0.00 0.00 96 1013.3
20260906110700 74 315 2.0 2.0 0.00 0.00 0.00 96 1013.3
20260906110200 74 324 1.0 2.0 0.00 0.00 0.00 96 1013.3
20260906105700 74 314 1.0 2.0 0.00 0.00 0.00 96 1013.3
20260906105200 74 322 2.0 2.0 0.00 0.00 0.00 96 1013.3
20260906104700 74 320 1.0 2.0 0.00 0.00 0.00 96 1013.2
20260906104200 74 322 1.0 1.0 0.00 0.00 0.00 96 1013.1
20260906103700 74 306 1.0 2.0 0.00 0.00 0.00 96 1013.1
20260906103200 74 316 1.0 2.0 0.00 0.00 0.00 96 1013.0
20260906102701 74 329 1.0 1.0 0.00 0.00 0.00 96 1013.1
20260906102159 74 313 1.0 2.0 0.00 0.00 0.00 96 1013.0
20260906101702 74 323 2.0 2.0 0.00 0.00 0.00 96 1012.9
20260906101200 74 320 2.0 2.0 0.00 0.00 0.00 96 1012.8
20260906100700 74 314 2.0 2.0 0.00 0.00 0.00 96 1012.8
20260906100201 74 317 2.0 3.0 0.00 0.00 0.00 96 1012.7
20260906095700 74 324 2.0 3.0 0.00 0.00 0.00 96 1012.7
20260906095200 74 314 2.0 2.0 0.00 0.00 0.00 96 1012.6
20260906094700 74 312 2.0 2.0 0.00 0.00 0.00 96 1012.6
20260906094200 74 307 2.0 2.0 0.00 0.00 0.00 96 1012.5
20260906093700 74 319 2.0 2.0 0.00 0.00 0.00 96 1012.5
20260906093200 74 315 1.0 2.0 0.00 0.00 0.00 96 1012.6
20260906092705 74 315 1.0 2.0 0.00 0.00 0.00 96 1012.6
20260906092200 74 314 2.0 2.0 0.00 0.00 0.00 96 1012.5
20260906091700 74 314 2.0 2.0 0.00 0.00 0.00 96 1012.6
20260906091200 74 314 2.0 3.0 0.00 0.00 0.00 96 1012.5
20260906090700 74 322 2.0 2.0 0.00 0.00 0.00 96 1012.4
20260906090200 74 320 2.0 3.0 0.00 0.00 0.00 96 1012.3
20260906085700 74 313 2.0 2.0 0.00 0.00 0.00 96 1012.3
20260906085200 74 311 2.0 2.0 0.00 0.00 0.00 96 1012.4
20260906084704 74 316 2.0 3.0 0.00 0.00 0.00 96 1012.4
20260906084201 74 312 1.0 1.0 0.00 0.00 0.00 96 1012.5
20260906083701 74 313 2.0 2.0 0.00 0.00 0.00 96 1012.6
20260906083200 74 314 2.0 2.0 0.00 0.00 0.00 96 1012.6
20260906082700 74 320 2.0 2.0 0.00 0.00 0.00 96 1012.6
20260906082200 74 321 2.0 2.0 0.00 0.00 0.00 96 1012.5
20260906081700 74 314 1.0 2.0 0.00 0.00 0.00 96 1012.5
20260906081200 74 307 1.0 2.0 0.00 0.00 0.00 96 1012.5
20260906080700 74 318 2.0 2.0 0.00 0.00 0.00 96 1012.5
20260906080200 74 322 2.0 2.0 0.00 0.00 0.00 96 1012.4
20260906075700 74 313 1.0 1.0 0.00 0.00 0.00 96 1012.4
20260906075200 74 317 1.0 1.0 0.00 0.00 0.00 96 1012.4
20260906074700 74 318 1.0 2.0 0.00 0.00 0.00 96 1012.4
20260906074200 74 318 1.0 1.0 0.00 0.00 0.00 96 1012.4
20260906073700 74 318 1.0 1.0 0.00 0.00 0.00 96 1012.4
20260906073200 74 318 1.0 2.0 0.00 0.00 0.00 96 1012.3
20260906072700 74 317 1.0 1.0 0.00 0.00 0.00 96 1012.3
20260906072200 74 316 2.0 2.0 0.00 0.00 0.00 96 1012.3
20260906071700 74 318 1.0 2.0 0.00 0.00 0.00 96 1012.3
20260906071200 74 327 2.0 2.0 0.00 0.00 0.00 96 1012.3
20260906070700 74 330 1.0 2.0 0.00 0.00 0.00 96 1012.5
20260906070200 74 105 2.0 2.0 0.00 0.00 0.00 96 1012.6
20260906065702 74 94 2.0 2.0 0.00 0.00 0.00 96 1012.6
20260906065200 74 163 2.0 2.0 0.00 0.00 0.00 96 1012.7
20260906064700 74 118 1.0 1.0 0.00 0.00 0.00 96 1012.7
20260906064200 74 112 1.0 2.0 0.00 0.00 0.00 96 1012.7
20260906063701 74 129 1.0 2.0 0.00 0.00 0.00 96 1012.6
20260906063200 74 139 1.0 2.0 0.00 0.00 0.00 96 1012.7
20260906062700 74 320 2.0 2.0 0.00 0.00 0.00 96 1012.7
20260906062200 74 95 1.0 1.0 0.00 0.00 0.00 96 1012.6
20260906061700 74 128 2.0 2.0 0.00 0.00 0.00 95 1012.6
20260906061200 74 130 1.0 2.0 0.00 0.00 0.00 95 1012.6
20260906060700 74 134 1.0 1.0 0.00 0.00 0.00 95 1012.7
20260906060200 74 140 1.0 2.0 0.00 0.00 0.00 95 1012.7
20260906055701 74 125 2.0 2.0 0.00 0.00 0.00 95 1012.8
20260906055200 74 40 1.0 2.0 0.00 0.00 0.00 95 1012.7
20260906054700 74 120 1.0 2.0 0.00 0.00 0.00 95 1012.8
20260906054200 74 97 1.0 2.0 0.00 0.00 0.00 95 1012.8
20260906053700 74 129 1.0 1.0 0.00 0.00 0.00 95 1012.7
20260906053200 74 139 1.0 2.0 0.00 0.00 0.00 95 1012.7
20260906052700 74 124 1.0 1.0 0.00 0.00 0.00 95 1012.6
20260906052200 74 124 1.0 2.0 0.00 0.00 0.00 95 1012.6
20260906051700 74 116 1.0 2.0 0.00 0.00 0.00 95 1012.6
20260906051200 74 151 2.0 4.0 0.00 0.00 0.00 95 1012.4
20260906050702 74 144 4.0 5.0 0.00 0.00 0.00 95 1012.4
20260906050200 74 164 3.0 3.0 0.00 0.00 0.00 95 1012.4
20260906045700 74 159 2.0 4.0 0.00 0.00 1.59 95 1012.3
20260906045201 74 145 4.0 6.0 0.00 0.00 1.59 95 1012.3
20260906044700 74 105 2.0 4.0 0.00 0.00 1.59 95 1012.3
20260906044200 74 140 3.0 4.0 0.00 0.00 1.59 95 1012.3
20260906043700 74 132 2.0 3.0 0.00 0.00 1.59 95 1012.3
20260906043200 74 56 2.0 4.0 0.00 0.00 1.59 95 1012.3
20260906042700 74 128 1.0 2.0 0.00 0.00 1.59 95 1012.2
20260906042200 74 317 2.0 4.0 0.00 0.00 1.59 95 1012.0
20260906041700 74 223 1.0 2.0 0.00 0.00 1.59 95 1012.0
20260906041200 74 164 1.0 2.0 0.00 0.00 1.59 95 1012.0
20260906040700 74 352 1.0 1.0 0.00 0.00 1.59 95 1011.9
20260906040200 74 298 4.0 5.0 0.00 0.00 1.59 95 1011.9
20260906035700 74 302 2.0 4.0 0.00 0.00 1.59 95 1011.8
20260906035200 74 305 4.0 6.0 0.00 0.00 1.59 95 1011.7
20260906034700 74 309 5.0 7.0 0.00 0.00 1.59 95 1011.7
20260906034200 74 296 4.0 6.0 0.00 0.00 1.59 95 1011.6
20260906033700 74 296 3.0 5.0 0.00 0.00 1.59 95 1011.6
20260906033200 74 311 3.0 6.0 0.00 0.00 1.59 95 1011.6
20260906032700 74 312 7.0 11.0 0.00 0.00 1.59 95 1011.6
20260906032200 74 329 2.0 2.0 0.00 0.00 1.59 95 1011.7
20260906031701 74 23 1.0 1.0 0.00 0.00 1.59 95 1011.6
20260906031200 74 353 2.0 2.0 0.00 0.00 1.59 95 1011.6
20260906030700 74 301 1.0 2.0 0.00 0.00 1.59 95 1011.4
20260906030200 74 19 1.0 1.0 0.00 0.00 1.59 95 1011.4
20260906025700 74 277 3.0 4.0 0.00 0.00 1.60 95 1011.4
20260906025200 74 239 3.0 3.0 0.00 0.00 1.60 95 1011.5
20260906024700 74 277 1.0 1.0 0.00 0.00 1.60 95 1011.4
20260906024200 74 162 2.0 3.0 0.00 0.00 1.60 95 1011.3
20260906023700 74 98 1.0 1.0 0.00 0.00 1.60 95 1011.3
20260906023200 75 152 3.0 4.0 0.00 0.00 1.60 95 1011.2
20260906022700 75 111 1.0 2.0 0.00 0.00 1.60 95 1011.2
20260906022200 75 33 1.0 1.0 0.00 0.00 1.60 95 1011.2
20260906021700 75 339 0.0 0.0 0.01 0.00 1.60 95 1011.2
20260906021200 75 190 1.0 1.0 0.02 0.00 1.60 95 1011.2
20260906020700 75 145 1.0 1.0 0.02 0.00 1.60 95 1011.3
20260906020200 75 319 1.0 2.0 0.03 0.00 1.60 95 1011.4
20260906015700 75 354 2.0 2.0 0.03 0.00 1.61 95 1011.6
20260906015200 75 334 1.0 2.0 0.03 0.00 1.61 94 1011.5
20260906014700 75 222 0.0 2.0 0.03 0.00 1.61 94 1011.5
20260906014200 75 203 0.0 1.0 0.03 0.00 1.61 94 1011.6
20260906013700 75 338 1.0 1.0 0.03 0.00 1.61 94 1011.5
20260906013200 75 180 2.0 3.0 0.03 0.00 1.60 94 1011.7
20260906012700 75 322 1.0 2.0 0.02 0.00 1.60 94 1011.9
20260906012200 75 326 2.0 2.0 0.01 0.00 1.60 94 1012.0
20260906011700 75 119 1.0 1.0 0.01 0.00 1.59 94 1012.1
20260906011200 75 310 2.0 5.0 0.01 0.00 1.59 94 1012.1
20260906010700 75 300 2.0 3.0 0.03 0.00 1.59 94 1012.3
20260906010200 75 345 1.0 2.0 0.03 0.00 1.58 94 1012.4
20260906005701 75 341 1.0 2.0 0.04 0.00 1.59 94 1012.5
20260906005200 75 65 2.0 3.0 0.06 0.00 1.59 94 1012.6
20260906004700 75 46 3.0 4.0 0.06 0.00 1.59 94 1012.6
20260906004201 75 352 2.0 2.0 0.06 0.00 1.59 94 1012.6
20260906003700 76 299 2.0 3.0 0.08 0.00 1.59 94 1012.7
20260906003200 76 357 1.0 1.0 0.08 0.00 1.59 94 1012.8
20260906002705 76 63 1.0 1.0 0.08 0.00 1.59 94 1012.8
20260906002200 76 348 1.0 1.0 0.08 0.00 1.60 94 1012.7
20260906001700 76 300 2.0 3.0 0.08 0.00 1.59 94 1012.8
20260906001200 76 210 2.0 2.0 0.08 0.00 1.59 94 1012.8
20260906000700 76 244 3.0 4.0 0.06 0.00 1.59 94 1012.6
20260906000200 76 294 3.0 5.0 0.06 0.00 1.58 94 1012.7
20260905235700 76 326 1.0 3.0 0.04 0.00 1.61 94 1012.8
20260905235200 76 312 2.0 6.0 0.03 0.00 1.60 94 1012.7
20260905234700 76 300 5.0 7.0 0.03 0.00 1.59 94 1012.5
20260905234200 76 297 3.0 6.0 0.02 0.00 1.58 94 1012.6
20260905233700 76 299 5.0 8.0 0.00 0.00 1.58 94 1012.7
20260905233200 76 306 4.0 7.0 0.00 0.00 1.57 94 1012.8
20260905232702 76 301 4.0 6.0 0.00 0.00 1.56 93 1012.8
20260905232200 76 313 1.0 4.0 0.04 0.00 1.56 93 1013.0
20260905231700 76 352 2.0 2.0 0.04 0.00 1.56 93 1013.2
20260905231200 76 344 2.0 2.0 0.12 0.00 1.56 93 1013.2
20260905230700 76 1 2.0 2.0 0.13 0.00 1.56 93 1013.1
20260905230200 76 289 2.0 3.0 0.16 0.00 1.56 93 1013.0
20260905225700 76 249 3.0 4.0 0.18 0.00 1.57 93 1012.7
20260905225200 76 222 5.0 5.0 0.18 0.00 1.57 93 1012.6
20260905224700 76 203 3.0 4.0 0.18 0.00 1.57 93 1012.8
20260905224200 76 196 4.0 9.0 0.18 0.00 1.57 93 1012.8
20260905223700 76 172 5.0 7.0 0.18 0.00 1.57 93 1012.9
20260905223200 76 176 4.0 6.0 0.16 0.00 1.55 92 1013.0
20260905222700 75 170 5.0 8.0 0.16 0.00 1.55 92 1013.0
20260905222200 76 173 6.0 7.0 0.15 0.00 1.54 91 1013.1
20260905221700 76 178 4.0 5.0 0.14 0.00 1.53 90 1013.1
20260905221200 77 81 4.0 7.0 0.07 0.00 1.49 88 1013.2
20260905220701 78 109 4.0 7.0 0.03 0.00 1.43 85 1013.3
20260905220202 79 175 2.0 4.0 0.01 0.00 1.40 84 1012.9
20260905215700 78 166 8.0 12.0 0.00 0.00 1.30 85 1012.7
20260905215200 78 99 9.0 12.0 0.00 0.00 1.30 87 1012.9
20260905214701 78 102 3.0 5.0 0.00 0.00 1.30 89 1012.3
20260905214200 77 227 5.0 7.0 0.00 0.00 1.30 89 1012.0
20260905213700 77 271 4.0 6.0 0.00 0.00 1.30 90 1011.5
20260905213200 77 278 5.0 6.0 0.00 0.00 1.30 90 1011.7
20260905212701 76 252 4.0 6.0 0.00 0.00 1.30 91 1011.6
20260905212200 76 239 4.0 7.0 0.00 0.00 1.30 91 1011.7
20260905211701 76 279 4.0 5.0 0.00 0.00 1.32 90 1011.7
20260905211200 76 257 4.0 6.0 0.00 0.00 1.32 90 1011.8
20260905210700 76 289 5.0 7.0 0.00 0.00 1.32 89 1012.0
20260905210200 76 286 4.0 6.0 0.08 0.00 1.32 89 1012.0
20260905205700 76 272 6.0 9.0 0.09 0.00 1.34 88 1012.0
20260905205200 77 264 6.0 8.0 0.14 0.00 1.34 89 1012.1
20260905204700 77 277 6.0 9.0 0.33 0.00 1.34 90 1011.8
20260905204200 78 273 5.0 7.0 0.33 0.00 1.34 89 1011.7
20260905203700 78 282 5.0 7.0 0.33 0.00 1.34 89 1011.8
20260905203200 79 288 6.0 7.0 0.33 0.00 1.34 89 1012.0
20260905202659 80 315 5.0 9.0 0.33 0.00 1.34 87 1012.0
20260905202200 80 280 4.0 5.0 0.38 0.00 1.39 83 1011.8
20260905201700 80 242 7.0 10.0 0.33 0.00 1.34 85 1011.8
20260905201200 80 248 7.0 10.0 0.33 0.00 1.34 87 1011.8
20260905200700 82 222 5.0 7.0 0.21 0.00 1.22 85 1011.9
20260905200200 83 254 6.0 9.0 0.18 0.00 1.19 85 1011.8
20260905195700 86 304 6.0 10.0 0.00 0.00 1.18 83 1011.5
20260905195200 90 281 6.0 9.0 0.00 0.00 1.15 75 1011.7
20260905194700 91 212 3.0 4.0 0.00 0.00 1.01 67 1011.8
20260905194200 91 219 2.0 4.0 0.00 0.00 1.01 66 1011.7
20260905193700 92 208 4.0 6.0 0.00 0.00 1.01 67 1011.7
20260905193200 92 178 6.0 9.0 0.00 0.00 1.01 66 1011.8
20260905192700 91 277 4.0 5.0 0.00 0.00 1.01 65 1011.8
20260905192200 91 332 4.0 5.0 0.00 0.00 1.01 64 1011.9
20260905191700 91 26 4.0 8.0 0.00 0.00 1.01 66 1012.1
20260905191200 90 336 0.0 2.0 0.00 0.00 1.01 68 1012.1
20260905190700 90 179 3.0 5.0 0.00 0.00 1.01 69 1012.2
20260905190201 89 265 3.0 4.0 0.00 0.00 1.01 71 1012.3
20260905185701 89 171 4.0 6.0 0.00 0.00 1.01 71 1012.4
20260905185200 89 243 2.0 4.0 0.00 0.00 1.01 72 1012.4
20260905184701 88 218 4.0 6.0 0.00 0.00 1.01 72 1012.4
20260905184200 88 258 3.0 4.0 0.00 0.00 1.01 73 1012.6
20260905183700 87 304 1.0 2.0 0.00 0.00 1.01 72 1012.7
20260905183201 87 243 4.0 5.0 0.00 0.00 1.01 74 1012.8